Regional Weather Roundup
Issued by NWS Little Rock, AR

Home | Current Version | Previous Version | Text Only | Print | Product List | Glossary Off
Versions: 1 2 3 4 5 6 7 8 9 10 11 12 13 14 15 16 17 18 19 20 21 22 23 24 25 26 27 28 29 30 31 32 33 34 35 36 37 38 39 40 41 42 43 44 45 46 47 48 49 50

000
ASUS44 KLZK 100505
RWRLZK

WEATHER ROUNDUP FOR ARKANSAS
NATIONAL WEATHER SERVICE LITTLE ROCK AR
1100 PM CST TUE FEB 09 2016

NOTE: "FAIR" INDICATES FEW OR NO CLOUDS BELOW 12,000 FEET WITH NO
SIGNIFICANT WEATHER AND/OR OBSTRUCTIONS TO VISIBILITY.

ARZ001-003-010-029-100600-
NORTHWEST ARKANSAS

CITY           SKY/WX    TMP DP  RH WIND       PRES   REMARKS
FAYETTEVILLE   CLEAR     25   8  48 NW13      30.27R WCI  14
FORT SMITH     CLEAR     35   7  31 N13G21    30.30R WCI  26
HARRISON       CLEAR     25   3  38 NW15G23   30.21R WCI  13
BENTONVILLE    CLEAR    N/A N/A N/A N15       30.27R
ROGERS         CLEAR     25   6  44 N13G18    30.27R WCI  14
SILOAM SPGS    CLEAR     25   3  39 N10       30.29R WCI  15
HIGHFILL       CLEAR     25   8  48 N12       30.26S WCI  14
$$

ARZ004-005-016-100600-
NORTH CENTRAL ARKANSAS

CITY           SKY/WX    TMP DP  RH WIND       PRES   REMARKS
BATESVILLE     CLEAR     30   7  37 W9G20     30.21R WCI  22
FLIPPIN        CLEAR    N/A N/A N/A NW14G21   30.20R
MTN HOME       CLEAR     26   4  38 NW9G23    30.19R WCI  17
$$

ARZ040-041-100600-
WEST CENTRAL ARKANSAS

CITY           SKY/WX    TMP DP  RH WIND       PRES   REMARKS
MENA           CLEAR     37  14  38 NW8G21    30.25R
MOUNT IDA      CLEAR     37  11  34 NW8       30.21R
$$

ARZ009-017-025-026-028-100600-
NORTHEAST ARKANSAS

CITY           SKY/WX    TMP DP  RH WIND       PRES   REMARKS
CORNING        FAIR      25  12  58 N7        30.19R WCI  17
JONESBORO      CLEAR     28  11  48 NW5       30.19R WCI  23
NEWPORT        PTCLDY    28  11  49 NW10      30.22R WCI  19
WALNUT RIDGE   CLEAR     25   9  50 N9        30.20R WCI  15
BLYTHEVILLE    CLEAR     25  15  66 NW3       30.18R
$$

ARZ022-023-033-042-044-100600-
CENTRAL ARKANSAS

CITY           SKY/WX    TMP DP  RH WIND       PRES   REMARKS
LITTLE ROCK    CLEAR     37   9  31 NW12      30.23R
N LITTLE ROCK  CLEAR     34  11  37 NW8       30.23R WCI  27
JACKSONVILLE   CLEAR     25  13  59 CALM      30.22R
SEARCY         CLEAR     32  12  43 NW7       30.24R WCI  26
HOT SPRINGS    CLEAR     37  13  37 NW6       30.23R
RUSSELLVILLE   CLEAR     35   8  32 NW14G20   30.23R WCI  26
CLINTON        FAIR      32   7  34 NW9       30.24R WCI  24
$$

ARZ036-100600-
EAST ARKANSAS

CITY           SKY/WX    TMP DP  RH WIND       PRES   REMARKS
WEST MEMPHIS   PTCLDY    29  17  61 NW6       30.18R WCI  23
$$

ARZ050-053-066-070-073-100600-
SOUTHWEST ARKANSAS

CITY           SKY/WX    TMP DP  RH WIND       PRES   REMARKS
ARKADELPHIA    FAIR      39  14  36 NW9       30.26R
CAMDEN         CLEAR     34  14  44 CALM      30.25R
TEXARKANA      CLEAR     41  18  39 NW9       30.27R
EL DORADO      CLEAR     33  19  56 NW3       30.24R
DE QUEEN       CLEAR     39  17  41 NW7       30.27R
$$

ARZ056-057-069-100600-
SOUTHEAST ARKANSAS

CITY           SKY/WX    TMP DP  RH WIND       PRES   REMARKS
PINE BLUFF     CLEAR     35  11  36 NW6       30.23R WCI  30
STUTTGART      CLEAR     30  18  59 NW9       30.22S WCI  22
MONTICELLO     CLEAR     36  12  37 CALM      30.22R

$$





USA.gov is the U.S. government's official web portal to all federal, state and local government web resources and services.